Weather History for Lafayette, LA

Change the Weather History Date:

Friday, May 10, 2013

  Actual Average Record
Temperature  
Mean Temperature 70 °F 75 °F  
Max Temperature 75 °F 85 °F 94 °F (1894)
Min Temperature 64 °F 66 °F 44 °F (1906)
Cooling Degree Days 5 10  
Month to date cooling degree days 29 92  
Year to date cooling degree days 201 346  
Growing Degree Days 20 (Base 50)    
Moisture  
Dew Point 65 °F    
Average Humidity 86    
Maximum Humidity 93    
Minimum Humidity 78    
Precipitation  
Precipitation 2.57 in 0.15 in 4.09 in (1907)
Month to date precipitation 3.40 1.48  
Year to date precipitation 29.79 19.32  
Sea Level Pressure  
Sea Level Pressure 29.98 in    
Wind  
Wind Speed 7 mph (SW)    
Max Wind Speed 20 mph    
Max Gust Speed 28 mph    
Visibility 6 miles    
Events Fog , Rain , Thunderstorm    
T = Trace of Precipitation, MM = Missing Value Source: NWS Daily Summary

Daily Weather History Graph

Daily Weather History Graph

Search for Another Location

Airport:

Trip Planner

Search our weather history database for the weather conditions in past years. The results will help you decide how hot, cold, wet, or windy it might be!

Date:

Astronomy

May. 10, 2013 Rise Set
Actual Time 6:17 AM CDT 7:51 PM CDT
Civil Twilight 5:51 AM CDT 8:17 PM CDT
Nautical Twilight 5:20 AM CDT 8:48 PM CDT
Astronomical Twilight 4:47 AM CDT 9:21 PM CDT
Moon 6:42 AM CDT (5/10) 8:39 PM CDT (5/10)
Length of Visible Light 14h 26m
Length of Day
13h 34m
New Moon, 0% of the Moon is Illuminated
May 10
New Moon
May 17
First Quarter
May 24
Full
May 31
Last Quarter
Jun 8
New

Hourly Weather History & Observations

Time (CDT) Temp. Dew Point Humidity Pressure Visibility Wind Dir Wind Speed Gust Speed Precip Events Conditions
12:53 AM 73.9 °F 69.1 °F 85% 29.96 in 10.0 mi SSE 8.1 mph 18.4 mph N/A   Mostly Cloudy
1:53 AM 75.0 °F 69.1 °F 82% 29.92 in 10.0 mi SSE 9.2 mph - N/A   Overcast
2:22 AM 75.2 °F 69.8 °F 83% 29.89 in 10.0 mi SE 11.5 mph 20.7 mph N/A Thunderstorm Overcast
2:40 AM 75.2 °F 69.8 °F 83% 29.89 in 10.0 mi SSE 12.7 mph 26.5 mph N/A   Overcast
2:53 AM 75.0 °F 70.0 °F 84% 29.90 in 10.0 mi SSE 16.1 mph 24.2 mph 0.00 in Rain , Thunderstorm Light Rain
3:20 AM 75.2 °F 69.8 °F 83% 29.96 in 7.0 mi SW 15.0 mph 18.4 mph 0.02 in Rain , Thunderstorm Light Thunderstorms and Rain
3:30 AM 73.4 °F 71.6 °F 94% 29.95 in 1.8 mi SSW 9.2 mph - 0.19 in Rain , Thunderstorm Heavy Thunderstorms and Rain
3:43 AM 73.4 °F 68.0 °F 83% 29.94 in 3.0 mi South 11.5 mph 23.0 mph 0.28 in Rain , Thunderstorm Heavy Thunderstorms and Rain
3:48 AM 73.4 °F 68.0 °F 83% 29.96 in 4.0 mi South 15.0 mph 23.0 mph 0.29 in Rain , Thunderstorm Heavy Thunderstorms and Rain
3:53 AM 72.0 °F 68.0 °F 87% 29.97 in 5.0 mi SW 13.8 mph - 0.30 in Rain , Thunderstorm Thunderstorms and Rain
4:00 AM 71.6 °F 68.0 °F 88% 29.97 in 1.8 mi WSW 10.4 mph - 0.17 in Rain , Thunderstorm Heavy Thunderstorms and Rain
4:07 AM 71.6 °F 68.0 °F 88% 29.97 in 1.0 mi WNW 8.1 mph - 0.29 in Rain , Thunderstorm Heavy Thunderstorms and Rain
4:23 AM 69.8 °F 66.2 °F 88% 29.97 in 0.5 mi NW 12.7 mph 25.3 mph 0.97 in Fog , Rain , Thunderstorm Heavy Thunderstorms and Rain
4:26 AM 69.8 °F 66.2 °F 88% 29.97 in 0.5 mi NW 10.4 mph 23.0 mph N/A Fog , Rain , Thunderstorm Heavy Thunderstorms and Rain
4:31 AM 69.8 °F 66.2 °F 88% 29.98 in 1.0 mi NW 13.8 mph - 1.11 in Rain , Thunderstorm Heavy Thunderstorms and Rain
4:48 AM 68.0 °F 66.2 °F 94% 29.99 in 2.5 mi WNW 5.8 mph - 1.38 in Rain , Thunderstorm Heavy Thunderstorms and Rain
4:53 AM 68.0 °F 66.0 °F 93% 29.99 in 3.0 mi NW 5.8 mph - 1.40 in Rain , Thunderstorm Heavy Thunderstorms and Rain
5:04 AM 69.8 °F 66.2 °F 88% 29.99 in 3.0 mi NW 10.4 mph - 0.04 in Rain Heavy Rain
5:20 AM 68.0 °F 66.2 °F 94% 30.00 in 4.0 mi WNW 5.8 mph - 0.10 in Rain Rain
5:53 AM 68.0 °F 62.1 °F 81% 30.01 in 6.0 mi SW 11.5 mph - 0.19 in Rain Heavy Rain
6:53 AM 66.0 °F 62.1 °F 87% 30.02 in 4.0 mi SW 5.8 mph - 0.21 in Rain Rain
7:53 AM 66.0 °F 62.1 °F 87% 29.92 in 10.0 mi South 11.5 mph - 0.05 in   Partly Cloudy
8:53 AM 69.1 °F 62.1 °F 78% 29.94 in 10.0 mi SSW 8.1 mph - N/A   Clear
9:53 AM 70.0 °F 63.0 °F 78% 29.95 in 10.0 mi South 4.6 mph - N/A   Clear
10:53 AM 70.0 °F 64.0 °F 81% 30.00 in 10.0 mi ENE 5.8 mph - N/A   Overcast
11:53 AM 69.8 °F 64.4 °F 83% 30.04 in 10.0 mi East 8.1 mph - N/A Rain Light Rain
12:53 PM 68.0 °F 64.9 °F 90% 30.04 in 9.0 mi ENE 4.6 mph - 0.04 in Rain Light Rain
1:53 PM 66.9 °F 64.9 °F 93% 30.00 in 4.0 mi ESE 3.5 mph - 0.02 in Rain Light Rain
2:03 PM 66.2 °F 64.4 °F 94% 29.99 in 5.0 mi North 5.8 mph - 0.00 in Rain , Thunderstorm Thunderstorms and Rain
2:36 PM 68.0 °F 66.2 °F 94% 30.02 in 4.0 mi Calm Calm - 0.04 in Rain , Thunderstorm Thunderstorms and Rain
2:45 PM 68.0 °F 64.4 °F 88% 30.01 in 2.0 mi NW 5.8 mph - 0.06 in Rain , Thunderstorm Thunderstorms and Rain
2:50 PM 68.0 °F 66.2 °F 94% 30.03 in 3.0 mi West 6.9 mph - 0.06 in Rain , Thunderstorm Thunderstorms and Rain
2:53 PM 68.0 °F 66.0 °F 93% 30.04 in 4.0 mi West 5.8 mph - 0.07 in Rain , Thunderstorm Thunderstorms and Rain
2:59 PM 68.0 °F 64.4 °F 88% 30.02 in 2.5 mi Calm Calm - 0.01 in Rain Rain
3:09 PM 68.0 °F 64.4 °F 88% 30.03 in 1.2 mi WNW 3.5 mph - 0.06 in Rain Heavy Rain
3:43 PM 66.2 °F 64.4 °F 94% 30.04 in 3.0 mi WSW 9.2 mph 16.1 mph 0.17 in Rain Rain
3:50 PM 66.2 °F 64.4 °F 94% 30.05 in 1.5 mi WSW 10.4 mph - 0.18 in Rain Rain
3:53 PM 66.9 °F 64.9 °F 93% 30.05 in 1.5 mi WSW 10.4 mph - 0.20 in Rain Heavy Rain
4:00 PM 66.2 °F 64.4 °F 94% 30.02 in 3.0 mi West 9.2 mph - 0.02 in Rain Rain
4:53 PM 66.0 °F 64.0 °F 93% 29.89 in 10.0 mi ESE 5.8 mph - 0.09 in   Partly Cloudy
5:14 PM 66.2 °F 64.4 °F 94% 29.88 in 10.0 mi Variable 6.9 mph 16.1 mph N/A   Partly Cloudy
5:53 PM 69.1 °F 64.0 °F 84% 29.89 in 10.0 mi SSE 9.2 mph - N/A   Clear
6:53 PM 68.0 °F 63.0 °F 84% 29.94 in 10.0 mi South 9.2 mph - N/A   Clear
7:22 PM 66.2 °F 62.6 °F 88% 29.96 in 10.0 mi SSE 5.8 mph - N/A   Scattered Clouds
7:34 PM 66.2 °F 62.6 °F 88% 29.97 in 10.0 mi SSE 4.6 mph - N/A   Mostly Cloudy
7:53 PM 66.9 °F 63.0 °F 87% 29.97 in 10.0 mi SSE 3.5 mph - N/A   Mostly Cloudy
8:27 PM 66.2 °F 62.6 °F 88% 29.98 in 10.0 mi Calm Calm - N/A   Scattered Clouds
8:48 PM 66.2 °F 64.4 °F 94% 29.99 in 10.0 mi Calm Calm - N/A   Mostly Cloudy
8:53 PM 66.0 °F 63.0 °F 90% 29.99 in 10.0 mi Calm Calm - N/A   Mostly Cloudy
9:11 PM 66.2 °F 62.6 °F 88% 29.98 in 10.0 mi Calm Calm - N/A   Scattered Clouds
9:53 PM 66.0 °F 63.0 °F 90% 30.00 in 9.0 mi Calm Calm - N/A   Mostly Cloudy
10:53 PM 66.9 °F 64.0 °F 90% 30.01 in 10.0 mi Calm Calm - N/A   Overcast
11:53 PM 64.9 °F 62.1 °F 90% 30.00 in 8.0 mi NE 4.6 mph - N/A   Clear